When you browse on this site, cookies collect data to enhance your experience and personalize the content and advertising you see.
Visit our Privacy Policy to learn more. By continuing to use the site, you agree to this use of cookies and data.
  • In Czech Republic
  • List of Countries
  • For 7 days
  • Water Temperature
  • Weather Map
  • Weather Widgets
  • user-avatar
    Login

    Hourly Weather La Paz

    Today, 21 October, Monday

    Time Temperature Precipitation Wind Pressure Humidity
    00:00 +22°C° 0.1 mm 1 mps 698 mmHg 92%
    01:00 +22°C° 0.1 mm 1 mps 698 mmHg 93%
    02:00 +22°C° 0.1 mm 1 mps 697 mmHg 94%
    03:00 +22°C° 0.1 mm 1 mps 697 mmHg 95%
    04:00 +22°C° 0 mm 1 mps 697 mmHg 95%
    05:00 +22°C° 0 mm 1 mps 698 mmHg 96%
    06:00 +22°C° 0 mm 1 mps 698 mmHg 96%
    07:00 +24°C° 0 mm 1 mps 698 mmHg 88%
    08:00 +26°C° 0 mm 1 mps 699 mmHg 79%
    09:00 +29°C° 0 mm 1 mps 700 mmHg 71%
    10:00 +29°C° 0.7 mm 1 mps 699 mmHg 69%
    11:00 +30°C° 0.7 mm 1 mps 699 mmHg 67%
    12:00 +31°C° 0.7 mm 1 mps 699 mmHg 65%
    13:00 +30°C° 0.8 mm 1 mps 698 mmHg 68%
    14:00 +30°C° 0.8 mm 1 mps 697 mmHg 71%
    15:00 +29°C° 0.8 mm 2 mps 697 mmHg 74%
    16:00 +27°C° 1.1 mm 2 mps 697 mmHg 81%
    17:00 +26°C° 1.1 mm 2 mps 697 mmHg 87%
    18:00 +24°C° 1.1 mm 2 mps 697 mmHg 94%
    19:00 +24°C° 1.5 mm 2 mps 698 mmHg 95%
    20:00 +24°C° 1.5 mm 2 mps 698 mmHg 95%
    21:00 +23°C° 1.5 mm 2 mps 699 mmHg 96%
    22:00 +23°C° 0.7 mm 2 mps 699 mmHg 96%
    23:00 +23°C° 0.7 mm 1 mps 699 mmHg 96%

    Tomorrow, 22 October, Tuesday

    Time Temperature Precipitation Wind Pressure Humidity
    00:00 +23°C° 0.7 mm 1 mps 698 mmHg 97%
    01:00 +23°C° 0 mm 1 mps 698 mmHg 96%
    02:00 +23°C° 0 mm 1 mps 698 mmHg 96%
    03:00 +20°C° 0 mm 0 mps 697 mmHg 95%
    04:00 +20°C° 0 mm 0 mps 698 mmHg 95%
    05:00 +20°C° 0 mm 0 mps 698 mmHg 95%
    06:00 +22°C° 0 mm 1 mps 698 mmHg 95%
    07:00 +23°C° 0 mm 1 mps 698 mmHg 90%
    08:00 +25°C° 0 mm 1 mps 699 mmHg 86%
    09:00 +26°C° 0 mm 1 mps 699 mmHg 82%
    10:00 +28°C° 0.3 mm 1 mps 699 mmHg 76%
    11:00 +29°C° 0.3 mm 1 mps 699 mmHg 69%
    12:00 +31°C° 0.3 mm 1 mps 698 mmHg 62%
    13:00 +30°C° 1.1 mm 1 mps 698 mmHg 69%
    14:00 +29°C° 1.1 mm 1 mps 697 mmHg 76%
    15:00 +28°C° 1.1 mm 2 mps 696 mmHg 82%
    16:00 +27°C° 1.2 mm 1 mps 696 mmHg 86%
    17:00 +25°C° 1.2 mm 1 mps 697 mmHg 90%
    18:00 +24°C° 1.2 mm 1 mps 697 mmHg 94%
    19:00 +24°C° 0.9 mm 1 mps 697 mmHg 94%
    20:00 +23°C° 0.9 mm 1 mps 698 mmHg 94%
    21:00 +21°C° 0.9 mm 0 mps 698 mmHg 94%
    22:00 +21°C° 0.4 mm 0 mps 698 mmHg 94%
    23:00 +21°C° 0.4 mm 0 mps 698 mmHg 95%

    Day after tomorrow, 23 October, Wednesday

    Time Temperature Precipitation Wind Pressure Humidity
    00:00 +20°C° 0.4 mm 0 mps 697 mmHg 95%
    01:00 +20°C° 0 mm 0 mps 697 mmHg 95%
    02:00 +20°C° 0 mm 0 mps 697 mmHg 95%
    03:00 +20°C° 0 mm 0 mps 697 mmHg 95%
    04:00 +21°C° 0 mm 1 mps 697 mmHg 96%
    05:00 +21°C° 0 mm 1 mps 697 mmHg 96%
    06:00 +21°C° 0 mm 1 mps 697 mmHg 97%
    07:00 +23°C° 0 mm 1 mps 698 mmHg 92%
    08:00 +25°C° 0 mm 1 mps 699 mmHg 88%
    09:00 +27°C° 0 mm 1 mps 699 mmHg 83%
    10:00 +28°C° 0.3 mm 1 mps 699 mmHg 78%
    11:00 +29°C° 0.3 mm 1 mps 698 mmHg 72%
    12:00 +30°C° 0.3 mm 1 mps 698 mmHg 66%
    13:00 +29°C° 1 mm 1 mps 697 mmHg 71%
    14:00 +29°C° 1 mm 1 mps 696 mmHg 75%
    15:00 +28°C° 1 mm 1 mps 696 mmHg 79%
    16:00 +27°C° 1 mm 1 mps 696 mmHg 84%
    17:00 +25°C° 1 mm 1 mps 696 mmHg 88%
    18:00 +24°C° 1 mm 1 mps 696 mmHg 93%
    19:00 +24°C° 0.1 mm 1 mps 697 mmHg 93%
    20:00 +23°C° 0.1 mm 1 mps 697 mmHg 93%
    21:00 +23°C° 0.1 mm 1 mps 698 mmHg 93%
    22:00 +23°C° 0 mm 1 mps 697 mmHg 93%
    23:00 +21°C° 0 mm 0 mps 697 mmHg 94%

    24 October, Thursday

    Time Temperature Precipitation Wind Pressure Humidity
    00:00 +21°C° 0 mm 0 mps 697 mmHg 94%
    01:00 +20°C° 0 mm 0 mps 697 mmHg 94%
    02:00 +20°C° 0 mm 0 mps 696 mmHg 95%
    03:00 +20°C° 0 mm 0 mps 696 mmHg 95%
    04:00 +20°C° 0 mm 0 mps 696 mmHg 95%
    05:00 +22°C° 0 mm 1 mps 696 mmHg 95%
    06:00 +21°C° 0 mm 1 mps 697 mmHg 96%
    07:00 +24°C° 0 mm 1 mps 697 mmHg 88%
    08:00 +26°C° 0 mm 1 mps 698 mmHg 79%
    09:00 +28°C° 0 mm 1 mps 699 mmHg 71%
    10:00 +29°C° 0 mm 1 mps 698 mmHg 64%
    11:00 +30°C° 0 mm 1 mps 698 mmHg 57%
    12:00 +32°C° 0 mm 1 mps 697 mmHg 50%
    13:00 +31°C° 0.2 mm 1 mps 697 mmHg 52%
    14:00 +31°C° 0.2 mm 1 mps 696 mmHg 55%
    15:00 +30°C° 0.2 mm 1 mps 696 mmHg 57%
    16:00 +28°C° 0.4 mm 1 mps 695 mmHg 67%
    17:00 +26°C° 0.4 mm 1 mps 695 mmHg 77%
    18:00 +24°C° 0.4 mm 1 mps 695 mmHg 88%
    19:00 +21°C° 0.1 mm 0 mps 696 mmHg 89%
    20:00 +21°C° 0.1 mm 0 mps 696 mmHg 89%
    21:00 +20°C° 0.1 mm 0 mps 697 mmHg 90%
    22:00 +20°C° 0 mm 0 mps 697 mmHg 91%
    23:00 +20°C° 0 mm 0 mps 697 mmHg 92%

    25 October, Friday

    Time Temperature Precipitation Wind Pressure Humidity
    00:00 +20°C° 0 mm 0 mps 696 mmHg 92%
    01:00 +19°C° 0 mm 0 mps 696 mmHg 93%
    02:00 +19°C° 0 mm 0 mps 696 mmHg 93%
    03:00 +19°C° 0 mm 0 mps 696 mmHg 93%
    04:00 +19°C° 0 mm 0 mps 696 mmHg 93%
    05:00 +19°C° 0 mm 0 mps 696 mmHg 93%
    06:00 +19°C° 0 mm 0 mps 696 mmHg 93%
    07:00 +22°C° 0 mm 0 mps 697 mmHg 83%
    08:00 +24°C° 0 mm 0 mps 698 mmHg 73%
    09:00 +27°C° 0 mm 0 mps 699 mmHg 63%
    10:00 +28°C° 0 mm 0 mps 698 mmHg 59%
    11:00 +31°C° 0 mm 1 mps 698 mmHg 55%
    12:00 +32°C° 0 mm 1 mps 697 mmHg 51%
    13:00 +31°C° 0.4 mm 1 mps 696 mmHg 57%
    14:00 +30°C° 0.4 mm 1 mps 696 mmHg 62%
    15:00 +29°C° 0.4 mm 1 mps 695 mmHg 68%
    16:00 +28°C° 0.7 mm 1 mps 695 mmHg 75%
    17:00 +26°C° 0.7 mm 1 mps 695 mmHg 83%
    18:00 +24°C° 0.7 mm 1 mps 696 mmHg 90%
    19:00 +24°C° 0.1 mm 1 mps 696 mmHg 91%
    20:00 +23°C° 0.1 mm 1 mps 696 mmHg 91%
    21:00 +21°C° 0.1 mm 0 mps 697 mmHg 91%
    22:00 +20°C° 0 mm 0 mps 697 mmHg 91%
    23:00 +20°C° 0 mm 0 mps 697 mmHg 92%

    26 October, Saturday

    Time Temperature Precipitation Wind Pressure Humidity
    00:00 +20°C° 0 mm 0 mps 697 mmHg 92%
    01:00 +20°C° 0 mm 0 mps 696 mmHg 92%
    02:00 +20°C° 0 mm 0 mps 696 mmHg 93%
    03:00 +19°C° 0 mm 0 mps 696 mmHg 93%
    04:00 +19°C° 0 mm 0 mps 696 mmHg 94%
    05:00 +19°C° 0 mm 0 mps 696 mmHg 94%
    06:00 +19°C° 0 mm 0 mps 696 mmHg 94%
    07:00 +21°C° 0 mm 0 mps 697 mmHg 87%
    08:00 +26°C° 0 mm 1 mps 698 mmHg 80%
    09:00 +28°C° 0 mm 1 mps 698 mmHg 73%
    10:00 +29°C° 0 mm 1 mps 698 mmHg 66%
    11:00 +31°C° 0 mm 1 mps 697 mmHg 59%
    12:00 +32°C° 0 mm 1 mps 697 mmHg 52%
    13:00 +31°C° 0.3 mm 1 mps 696 mmHg 57%
    14:00 +30°C° 0.3 mm 1 mps 696 mmHg 62%
    15:00 +30°C° 0.3 mm 2 mps 695 mmHg 67%
    16:00 +28°C° 1 mm 1 mps 695 mmHg 75%
    17:00 +26°C° 1 mm 1 mps 696 mmHg 83%
    18:00 +22°C° 1 mm 0 mps 696 mmHg 92%
    19:00 +21°C° 0.7 mm 0 mps 696 mmHg 92%
    20:00 +21°C° 0.7 mm 0 mps 697 mmHg 93%
    21:00 +23°C° 0.7 mm 1 mps 697 mmHg 93%
    22:00 +23°C° 0.1 mm 1 mps 697 mmHg 93%
    23:00 +22°C° 0.1 mm 1 mps 697 mmHg 94%

    27 October, Sunday

    Time Temperature Precipitation Wind Pressure Humidity
    00:00 +22°C° 0.1 mm 1 mps 698 mmHg 94%
    01:00 +22°C° 0 mm 1 mps 697 mmHg 95%
    02:00 +22°C° 0 mm 1 mps 697 mmHg 95%
    03:00 +22°C° 0 mm 1 mps 697 mmHg 96%
    04:00 +22°C° 0 mm 1 mps 697 mmHg 97%
    05:00 +22°C° 0 mm 1 mps 697 mmHg 97%
    06:00 +21°C° 0 mm 1 mps 697 mmHg 98%
    07:00 +23°C° 0 mm 1 mps 698 mmHg 93%
    08:00 +24°C° 0 mm 2 mps 698 mmHg 89%
    09:00 +26°C° 0 mm 2 mps 699 mmHg 84%
    10:00 +27°C° 0 mm 2 mps 698 mmHg 77%
    11:00 +28°C° 0 mm 2 mps 698 mmHg 71%
    12:00 +30°C° 0 mm 2 mps 698 mmHg 64%
    13:00 +30°C° 0.2 mm 2 mps 697 mmHg 65%
    14:00 +30°C° 0.2 mm 2 mps 697 mmHg 65%
    15:00 +30°C° 0.2 mm 2 mps 696 mmHg 66%
    16:00 +28°C° 0.3 mm 2 mps 696 mmHg 75%
    17:00 +26°C° 0.3 mm 2 mps 697 mmHg 85%
    18:00 +24°C° 0.3 mm 2 mps 697 mmHg 95%
    19:00 +23°C° 0 mm 2 mps 697 mmHg 96%
    20:00 +23°C° 0 mm 2 mps 698 mmHg 97%
    21:00 +22°C° 0 mm 1 mps 698 mmHg 98%
    22:00 +21°C° 0 mm 2 mps 698 mmHg 98%
    23:00 +21°C° 0 mm 2 mps 698 mmHg 98%
    Show more